EW5862 Weather Reports


time (UTC)temp
C
wind
direction
speed
KPH
gust
KPH
rain 1hr
cm
rain 24hr
cm
rain mn
cm
humidity
%
barometer
mb
20260510211517 -17 0.0 0.0 0.00 0.00 0.00
20260510210517 -17 0.0 0.0 0.00 0.00 0.00
20260510210017 -17 0.0 0.0 0.00 0.00 0.00
20260510205017 -17 0.0 0.0 0.00 0.00 0.00
20260510204017 -17 0.0 0.0 0.00 0.00 0.00
20260510203045 -17 0.0 0.0 0.00 0.00 0.00
20260510202517 -17 0.0 0.0 0.00 0.00 0.00
20260510201517 -17 0.0 0.0 0.00 0.00 0.00
20260510201017 -17 0.0 0.0 0.00 0.00 0.00
20260510200017 -17 0.0 0.0 0.00 0.00 0.00
20260510195524 -17 0.0 0.0 0.00 0.00 0.00
20260510195037 -17 0.0 0.0 0.00 0.00 0.00
20260510194017 -17 0.0 0.0 0.00 0.00 0.00
20260510193516 -17 0.0 0.0 0.00 0.00 0.00
20260510192517 -17 0.0 0.0 0.00 0.00 0.00
20260510191517 -17 0.0 0.0 0.00 0.00 0.00
20260510190535 -17 0.0 0.0 0.00 0.00 0.00
20260510190016 -17 0.0 0.0 0.00 0.00 0.00
20260510185016 -17 0.0 0.0 0.00 0.00 0.00
20260510184517 -17 0.0 0.0 0.00 0.00 0.00
20260510183517 -17 0.0 0.0 0.00 0.00 0.00
20260510183024 -17 0.0 0.0 0.00 0.00 0.00
20260510182517 -17 0.0 0.0 0.00 0.00 0.00
20260510181516 -17 0.0 0.0 0.00 0.00 0.00
20260510181026 19 0.0 0.0 0.00 0.00 0.00 57 1010.4
20260510180655 19 338 1.6 4.8 0.00 0.00 0.00 57 1010.4
20260510175537 20 338 9.7 19.3 0.00 0.00 0.00 54 1010.1
20260510174516 20 338 6.4 19.3 0.00 0.00 0.00 54 1010.2
20260510173517 20 338 11.3 22.5 0.00 0.00 0.00 54 1010.1
20260510172516 20 338 8.0 19.3 0.00 0.00 0.00 54 1010.1
20260510171536 20 338 11.3 24.1 0.00 0.00 0.00 52 1009.9
20260510170517 20 338 17.7 24.1 0.00 0.00 0.00 51 1010.0
20260510165517 21 338 14.5 22.5 0.00 0.00 0.00 50 1010.1
20260510164557 21 338 11.3 20.9 0.00 0.00 0.00 50 1010.2
20260510163516 22 338 16.1 27.4 0.00 0.00 0.00 48 1010.2
20260510162516 22 338 12.9 27.4 0.00 0.00 0.00 49 1010.1
20260510161516 22 338 19.3 33.8 0.00 0.00 0.00 48 1010.1
20260510160516 22 338 19.3 32.2 0.00 0.00 0.00 49 1010.2
20260510155517 21 338 14.5 35.4 0.00 0.00 0.00 52 1010.0
20260510154516 21 338 12.9 22.5 0.00 0.00 0.00 52 1010.1
20260510153516 21 338 12.9 40.2 0.00 0.00 0.00 52 1010.2
20260510152516 21 338 16.1 40.2 0.00 0.00 0.00 53 1010.3
20260510151517 22 338 14.5 24.1 0.00 0.00 0.00 52 1010.4
20260510150516 21 338 11.3 24.1 0.00 0.00 0.00 56 1010.5
20260510145536 22 338 11.3 24.1 0.00 0.00 0.00 54 1010.6
20260510144516 22 338 12.9 24.1 0.00 0.00 0.00 54 1010.8
20260510143516 22 338 8.0 19.3 0.00 0.00 0.00 60 1011.2
20260510142516 22 338 14.5 24.1 0.00 0.00 0.00 60 1011.2
20260510141516 22 338 9.7 24.1 0.00 0.00 0.00 61 1011.3
20260510135516 21 338 11.3 22.5 0.00 0.00 0.00 63 1011.6
20260510134536 21 338 11.3 25.7 0.00 0.00 0.00 64 1011.7
20260510133516 21 338 11.3 24.1 0.00 0.00 0.00 61 1011.7
20260510132556 21 338 11.3 24.1 0.00 0.00 0.00 63 1012.0
20260510131516 22 338 14.5 29.0 0.00 0.00 0.00 60 1012.1
20260510130516 22 338 17.7 27.4 0.00 0.00 0.00 62 1012.2
20260510125531 21 338 14.5 33.8 0.00 0.00 0.00 60 1012.1
20260510124536 21 338 9.7 24.1 0.00 0.00 0.00 55 1012.2
20260510123546 22 0.0 0.0 0.00 0.00 0.00 51 1012.3
20260510123021 22 338 20.9 38.6 0.00 0.00 0.00 51 1012.4
20260510122504 22 338 11.3 19.3 0.00 0.00 0.00 51 1012.5
20260510122016 22 338 16.1 24.1 0.00 0.00 0.00 52 1012.7
20260510121016 21 338 12.9 25.7 0.00 0.00 0.00 53 1013.1
20260510120036 21 338 12.9 25.7 0.00 0.00 0.00 53 1013.2
20260510115016 21 338 16.1 27.4 0.00 0.00 0.00 52 1013.1
20260510114016 20 338 14.5 27.4 0.00 0.00 0.00 56 1013.3
20260510113036 21 338 17.7 32.2 0.00 0.00 0.00 55 1013.6
20260510112036 20 338 14.5 24.1 0.00 0.00 0.00 56 1013.6
20260510111016 20 338 19.3 32.2 0.00 0.00 0.00 54 1013.7
20260510110016 20 338 16.1 32.2 0.00 0.00 0.00 55 1013.8
20260510105016 20 338 12.9 29.0 0.00 0.00 0.00 56 1013.8
20260510104016 20 338 12.9 30.6 0.00 0.00 0.00 53 1013.8
20260510103016 20 338 12.9 32.2 0.00 0.00 0.00 51 1014.0
20260510102016 20 338 12.9 27.4 0.00 0.00 0.00 51 1013.9
20260510101016 20 338 6.4 20.9 0.00 0.00 0.00 52 1013.9
20260510100016 20 338 12.9 24.1 0.00 0.05 0.00 50 1013.8
20260510095036 20 338 14.5 27.4 0.00 0.05 0.00 54 1013.8
20260510094015 19 338 6.4 22.5 0.00 0.05 0.00 56 1014.0
20260510093016 18 338 3.2 14.5 0.00 0.05 0.00 58 1013.9
20260510092016 18 338 1.6 8.0 0.00 0.05 0.00 58 1013.8
20260510091015 17 338 8.0 14.5 0.00 0.05 0.00 57 1014.0
20260510090016 17 338 14.5 20.9 0.00 0.05 0.00 58 1014.1
20260510085015 17 338 14.5 20.9 0.00 0.05 0.00 60 1014.1
20260510084015 17 338 12.9 25.7 0.00 0.05 0.00 62 1014.1
20260510083015 16 338 11.3 19.3 0.00 0.05 0.00 66 1014.1
20260510082036 16 338 9.7 16.1 0.00 0.05 0.00 71 1014.0
20260510081015 15 338 4.8 12.9 0.00 0.05 0.00 83 1014.2
20260510080016 15 0.0 1.6 0.00 0.05 0.00 85 1014.1
20260510075015 15 0.0 0.0 0.00 0.05 0.00 81 1014.2
20260510074015 14 0.0 0.0 0.00 0.05 0.00 79 1014.1
20260510073036 13 0.0 0.0 0.00 0.05 0.00 79 1014.4
20260510072016 13 0.0 0.0 0.00 0.05 0.00 80 1014.2
20260510071015 12 0.0 0.0 0.00 0.05 0.00 80 1014.1
20260510070016 11 0.0 0.0 0.00 0.08 0.00 80 1013.8
20260510065015 11 0.0 0.0 0.00 0.10 0.00 80 1013.8
20260510064035 10 0.0 0.0 0.00 0.13 0.00 80 1013.5
20260510063017 10 0.0 0.0 0.00 0.13 0.00 80 1013.4
20260510062017 10 0.0 0.0 0.00 0.13 0.00 80 1013.4
20260510061017 10 0.0 0.0 0.00 0.13 0.00 80 1013.4
20260510060017 9 0.0 0.0 0.00 0.13 0.00 80 1013.3
20260510055017 9 0.0 0.0 0.00 0.13 0.00 80 1013.2
20260510054017 8 0.0 0.0 0.00 0.13 0.00 80 1013.1
20260510053017 8 0.0 0.0 0.00 0.13 0.00 81 1012.9
20260510052037 8 0.0 0.0 0.00 0.13 0.00 81 1012.9
20260510051546 8 0.0 1.6 0.00 0.13 0.00 81 1012.9
20260510051017 8 0.0 0.0 0.00 0.13 0.00 81 1013.0
20260510050017 8 0.0 0.0 0.00 0.13 0.00 81 1013.1
20260510045017 8 0.0 0.0 0.00 0.13 0.00 81 1013.1
20260510044017 8 0.0 0.0 0.00 0.13 0.00 81 1013.1
20260510043017 8 0.0 0.0 0.00 0.13 0.00 81 1013.0
20260510042017 8 0.0 0.0 0.00 0.13 0.00 81 1012.9
20260510041017 8 0.0 0.0 0.00 0.13 0.00 81 1013.0
20260510040037 8 0.0 0.0 0.00 0.13 0.00 81 1012.9
20260510035017 8 0.0 0.0 0.00 0.13 0.00 81 1012.8
20260510034017 8 0.0 0.0 0.00 0.13 0.00 81 1013.0
20260510033017 8 0.0 0.0 0.00 0.13 0.00 81 1012.9
20260510032037 9 0.0 0.0 0.00 0.13 0.00 81 1013.0
20260510031017 9 0.0 0.0 0.00 0.13 0.00 81
20260510030017 9 0.0 0.0 0.00 0.13 0.00 81
20260510025037 9 0.0 0.0 0.00 0.13 0.00 81
20260510024017 9 0.0 0.0 0.00 0.13 0.00 82
20260510023057 10 0.0 0.0 0.00 0.13 0.00 81
20260510022017 10 0.0 0.0 0.00 0.13 0.00 81
20260510021037 10 0.0 0.0 0.00 0.13 0.00 81
20260510020017 10 0.0 0.0 0.00 0.13 0.00 81
20260510015017 9 0.0 3.2 0.00 0.13 0.00 81
20260510014017 9 0.0 0.0 0.00 0.13 0.00 82 1012.7
20260510013017 10 0.0 1.6 0.00 0.13 0.00 83 1012.5
20260510012017 10 0.0 4.8 0.00 0.13 0.00 81 1012.8
20260510011057 10 0.0 4.8 0.00 0.13 0.00 82 1012.7
20260510010017 10 0.0 0.0 0.00 0.13 0.00 81 1012.8
20260510005017 10 338 3.2 6.4 0.00 0.13 0.00 81 1012.8
20260510004017 10 0.0 0.0 0.00 0.13 0.00 81 1012.9
20260510003017 10 0.0 0.0 0.00 0.13 0.00 82 1013.1
20260510002037 11 0.0 0.0 0.00 0.13 0.00 82 1013.1
20260510001017 11 0.0 0.0 0.00 0.13 0.00 81 1013.1
20260510000017 11 0.0 0.0 0.00 0.13 0.00 82 1013.2
20260509235017 11 0.0 0.0 0.00 0.13 0.00 82 1013.3
20260509234017 11 0.0 0.0 0.00 0.13 0.00 82
20260509233017 12 0.0 0.0 0.00 0.13 0.00 82
20260509232017 12 0.0 0.0 0.00 0.13 0.00 81
20260509231017 12 0.0 0.0 0.00 0.13 0.00 81
20260509230017 12 0.0 0.0 0.00 0.13 0.00 81
20260509225037 12 0.0 0.0 0.00 0.13 0.00 82
20260509224017 12 0.0 0.0 0.00 0.13 0.00 82 1013.5
20260509223057 11 0.0 0.0 0.00 0.13 0.00 82 1013.5
20260509222017 11 0.0 0.0 0.00 0.13 0.00 83 1013.4
20260509221017 11 0.0 4.8 0.00 0.13 0.00 84 1013.4
20260509220016 11 338 4.8 6.4 0.00 0.13 0.13 84 1013.3
20260509215057 11 338 4.8 6.4 0.00 0.13 0.13 84 1013.2
20260509214017 11 315 1.6 4.8 0.00 0.13 0.13 85 1012.9
20260509213017 11 0.0 0.0 0.00 0.13 0.13 85 1013.0
20260509212017 11 0.0 3.2 0.00 0.13 0.13 85 1013.0